K14-fa-1c Sea,

2:22 AM CEST on July 28, 2017 (GMT +0200)
K14-fa-1c Sea

Weather History for EHKV - December, 2013

Change the Weather History Date:

Sunday, December 15, 2013

  Actual Average Record
Temperature  
Mean Temperature 50 °F -  
Max Temperature 51 °F - - ()
Min Temperature 48 °F - - ()
Degree Days  
Heating Degree Days 16    
Moisture  
Dew Point 47 °F    
Average Humidity 88    
Maximum Humidity 94    
Minimum Humidity 78    
Precipitation  
Precipitation 0.00 in - - ()
Sea Level Pressure  
Sea Level Pressure 30.07 in    
Wind  
Wind Speed 36 mph ()    
Max Wind Speed 50 mph    
Max Gust Speed -    
Visibility 5.7 miles    
Events Rain    
T = Trace of Precipitation, MM = Missing Value Source: Averaged Metar Reports

Daily Weather History Graph

Daily Weather History Graph

Search for Another Location

Airport or City:

Trip Planner

Search our weather history database for the weather conditions in past years. The results will help you decide how hot, cold, wet, or windy it might be!

Date:

Astronomy

Dec. 15, 2013 Rise Set
Actual Time 8:54 AM CET 4:27 PM CET
Civil Twilight 8:11 AM CET 5:09 PM CET
Nautical Twilight 7:26 AM CET 5:55 PM CET
Astronomical Twilight 6:43 AM CET 6:37 PM CET
Moon 3:31 PM CET (12/15) 6:44 AM CET (12/15)
Length of Visible Light 8h 58m
Length of Day
7h 33m
Waxing Gibbous, 97% of the Moon is Illuminated
Dec 15
Waxing Gibbous
Dec 17
Full
Dec 25
Last Quarter
Jan 1
New
Jan 8
First Quarter

Hourly Weather History & Observations

Time (CET) Temp. Dew Point Humidity Pressure Visibility Wind Dir Wind Speed Gust Speed Precip Events Conditions
12:25 AM 48.2 °F 44.6 °F 87% 30.04 in 4.3 mi SSW 47.2 mph - N/A Rain Light Rain
12:55 AM 48.2 °F 44.6 °F 87% 30.01 in 3.7 mi SSW 48.3 mph - N/A Rain Rain
1:00 AM 49 °F 45 °F 81% 30.03 in 4 mi SSW 40.3 mph - - Rain Light Rain
1:25 AM 48.2 °F 44.6 °F 87% 30.01 in 5.0 mi SSW 49.5 mph - N/A Rain Light Rain
1:55 AM 48.2 °F 46.4 °F 93% 30.01 in 4.3 mi SSW 49.5 mph - N/A   Light Drizzle
2:25 AM 50.0 °F 46.4 °F 87% 29.98 in 5.6 mi SSW 48.3 mph - N/A   Mostly Cloudy
2:55 AM 50.0 °F 46.4 °F 87% 30.01 in 3.7 mi SSW 48.3 mph - N/A Rain Light Rain
3:25 AM 48.2 °F 46.4 °F 93% 30.01 in 3.7 mi SW 46.0 mph - N/A Rain Rain
3:55 AM 48.2 °F 46.4 °F 93% 30.01 in 3.1 mi SW 47.2 mph - N/A Rain Light Rain
4:00 AM 49 °F 47 °F 88% 30.01 in 4 mi SW 40.3 mph - - Rain Light Rain
4:25 AM 50.0 °F 46.4 °F 87% 30.01 in 5.6 mi SW 48.3 mph - N/A   Mostly Cloudy
4:55 AM 50.0 °F 46.4 °F 87% 30.01 in 5.6 mi SW 47.2 mph - N/A   Mostly Cloudy
5:25 AM 50.0 °F 46.4 °F 87% 30.04 in 5.6 mi SW 43.7 mph - N/A   Mostly Cloudy
5:55 AM 50.0 °F 46.4 °F 87% 30.04 in 6.2 mi WSW 42.6 mph - N/A   Scattered Clouds
6:25 AM 50.0 °F 46.4 °F 87% 30.06 in 6.2 mi SW 39.1 mph - N/A   Partly Cloudy
6:55 AM 50.0 °F 46.4 °F 87% 30.06 in 6.2 mi WSW 38.0 mph - N/A   Unknown
7:00 AM 50 °F 47 °F 86% 30.10 in 7 mi WSW 31.3 mph - -   Partly Cloudy
7:25 AM 50.0 °F 48.2 °F 94% 30.09 in 6.2 mi WSW 35.7 mph - N/A   Unknown
7:55 AM 50.0 °F 46.4 °F 87% 30.09 in 6.2 mi WSW 32.2 mph - N/A   Unknown
8:25 AM 50.0 °F 46.4 °F 87% 30.12 in 6.2 mi WSW 29.9 mph - N/A   Unknown
8:55 AM 50.0 °F 46.4 °F 87% 30.12 in 6.2 mi WSW 26.5 mph - N/A   Unknown
9:25 AM 50.0 °F 46.4 °F 87% 30.12 in 6.2 mi WSW 28.8 mph - N/A   Unknown
9:55 AM 50.0 °F 46.4 °F 87% 30.15 in 6.2 mi WSW 28.8 mph - N/A   Unknown
10:00 AM 50 °F 46 °F 83% 30.16 in 9 mi SW 24.6 mph - -   Scattered Clouds
10:25 AM 50.0 °F 46.4 °F 87% 30.15 in 6.2 mi SW 28.8 mph - N/A   Unknown
10:55 AM 50.0 °F 46.4 °F 87% 30.15 in 6.2 mi SW 28.8 mph - N/A   Unknown
11:25 AM 50.0 °F 44.6 °F 82% 30.15 in 6.2 mi SW 27.6 mph - N/A   Unknown
11:55 AM 50.0 °F 44.6 °F 82% 30.15 in 6.2 mi SW 24.2 mph - N/A   Unknown
12:25 PM 50.0 °F 44.6 °F 82% 30.15 in 6.2 mi SW 24.2 mph - N/A   Unknown
12:55 PM 50.0 °F 44.6 °F 82% 30.15 in 6.2 mi SSW 26.5 mph - N/A   Unknown
1:00 PM 50 °F 45 °F 78% 30.16 in 9 mi SSW 22.4 mph - -   Partly Cloudy
1:25 PM 50.0 °F 46.4 °F 87% 30.12 in 6.2 mi SSW 25.3 mph - N/A   Unknown
1:55 PM 50.0 °F 46.4 °F 87% 30.12 in 6.2 mi SSW 29.9 mph - N/A   Partly Cloudy
2:25 PM 50.0 °F 46.4 °F 87% 30.12 in 6.2 mi SSW 34.5 mph - N/A   Mostly Cloudy
2:55 PM 50.0 °F 46.4 °F 87% 30.12 in 6.2 mi SSW 36.8 mph - N/A   Mostly Cloudy
3:25 PM 50.0 °F 46.4 °F 87% 30.09 in 5.0 mi SSW 36.8 mph - N/A   Mostly Cloudy
3:55 PM 50.0 °F 48.2 °F 94% 30.09 in 6.2 mi SSW 38.0 mph - N/A   Overcast
4:00 PM 50 °F 47 °F 86% 30.12 in 6 mi SSW 33.6 mph - -   Mist
4:25 PM 50.0 °F 48.2 °F 94% 30.09 in 5.0 mi SSW 39.1 mph - N/A   Overcast
4:55 PM 50.0 °F 48.2 °F 94% 30.09 in 3.7 mi SSW 35.7 mph - N/A   Overcast
5:25 PM 50.0 °F 48.2 °F 94% 30.09 in 5.0 mi SSW 33.4 mph - N/A   Overcast
5:55 PM 50.0 °F 48.2 °F 94% 30.06 in 5.0 mi SSW 38.0 mph - N/A   Overcast
6:25 PM 50.0 °F 48.2 °F 94% 30.06 in 4.3 mi SSW 35.7 mph - N/A   Overcast
6:55 PM 50.0 °F 46.4 °F 87% 30.06 in 5.6 mi SSW 40.3 mph - N/A   Overcast
7:00 PM 50 °F 47 °F 86% 30.08 in 6 mi SSW 35.8 mph - - Rain Rain
7:25 PM 50.0 °F 46.4 °F 87% 30.06 in 6.2 mi SSW 39.1 mph - N/A   Overcast
7:55 PM 50.0 °F 48.2 °F 94% 30.06 in 5.0 mi SSW 39.1 mph - N/A   Overcast
8:25 PM 50.0 °F 48.2 °F 94% 30.06 in 5.0 mi SSW 41.4 mph - N/A   Overcast
8:55 PM 50.0 °F 48.2 °F 94% 30.04 in 6.2 mi SSW 41.4 mph - N/A   Overcast
9:25 PM 50.0 °F 46.4 °F 87% 30.04 in 6.2 mi SSW 35.7 mph - N/A   Overcast
9:55 PM 50.0 °F 46.4 °F 87% 30.04 in 6.2 mi SSW 40.3 mph - N/A   Overcast
10:00 PM 51 °F 47 °F 80% 30.05 in 7 mi SSW 33.6 mph - -   Overcast
10:25 PM 51.8 °F 46.4 °F 82% 30.04 in 6.2 mi SSW 39.1 mph - N/A   Overcast
10:55 PM 51.8 °F 48.2 °F 88% 30.04 in 6.2 mi SSW 39.1 mph - N/A   Overcast
11:25 PM 51.8 °F 48.2 °F 88% 30.01 in 6.2 mi SSW 42.6 mph - N/A   Overcast
11:55 PM 51.8 °F 48.2 °F 88% 30.01 in 6.2 mi SSW 41.4 mph - N/A   Overcast